This is the latest recevied weather packets stored in our database for station/object BG5HLN-13. If no packets are shown the sender has not sent any weather packets the latest 10 day(s).
| Time | Temp. | Humidity | Pressure | Rain* | Wind** | Luminosity | Snow |
|---|---|---|---|---|---|---|---|
| 1788205599 | 30.56° C | 85% | 1005.6 hPa | 3.56 mm | - | - | - |
| 1788204998 | 30.56° C | 86% | 1005.6 hPa | 6.86 mm | - | - | - |
| 1788204398 | 30.56° C | 85% | 1005.6 hPa | 7.37 mm | - | - | - |
| 1788203799 | 30.56° C | 85% | 1005.7 hPa | 8.38 mm | - | - | - |
| 1788203199 | 30.56° C | 85% | 1005.6 hPa | 8.89 mm | - | - | - |
| 1788202598 | 31.11° C | 85% | 1005.6 hPa | 12.45 mm | - | - | - |
| 1788201998 | 31.11° C | 85% | 1005.7 hPa | 17.78 mm | - | - | - |
| 1788201398 | 31.11° C | 85% | 1005.7 hPa | 13.97 mm | - | - | - |
| 1788200799 | 31.11° C | 85% | 1005.8 hPa | 13.21 mm | - | - | - |
| 1788200197 | 31.11° C | 84% | 1005.9 hPa | 11.18 mm | - | - | - |
| 1788199598 | 31.11° C | 84% | 1006 hPa | 10.41 mm | - | - | - |
| 1788198999 | 31.11° C | 85% | 1005.9 hPa | 6.6 mm | - | - | - |
| 1788198398 | 31.11° C | 85% | 1006 hPa | 0.25 mm | - | - | - |
| 1788197801 | 31.11° C | 85% | 1006 hPa | 0.25 mm | - | - | - |
| 1788197198 | 31.11° C | 85% | 1006.2 hPa | 0.25 mm | - | - | - |
| 1788196597 | 31.67° C | 83% | 1006.4 hPa | 0.25 mm | - | - | - |
| 1788195997 | 31.67° C | 84% | 1006.5 hPa | 0.25 mm | - | - | - |
| 1788195398 | 31.67° C | 84% | 1006.6 hPa | 0.25 mm | - | - | - |
| 1788194798 | 31.67° C | 84% | 1006.5 hPa | 0 mm | - | - | - |
| 1788194197 | 31.67° C | 84% | 1006.3 hPa | 0 mm | - | - | - |
| 1788193598 | 31.67° C | 84% | 1006.2 hPa | 0 mm | - | - | - |
| 1788192998 | 31.67° C | 84% | 1006.2 hPa | 0 mm | - | - | - |
| 1788192397 | 31.67° C | 84% | 1006.3 hPa | 0 mm | - | - | - |
| 1788191797 | 31.67° C | 84% | 1006.4 hPa | 0 mm | - | - | - |
| 1788191198 | 31.67° C | 84% | 1006.3 hPa | 0.25 mm | - | - | - |
* Rain latest hour (hover to see other rain measurements)
** Current wind speed in m/s (hover to see current wind gust speed)